Time,TemperatureF,DewpointF,PressureIn,WindDirection,WindDirectionDegrees,WindSpeedMPH,WindSpeedGustMPH,Humidity,HourlyPrecipIn,Conditions,Clouds,dailyrainin,SolarRadiationWatts/m^2,SoftwareType,DateUTC
2013-07-08 00:33:00,60.0,59.0,-100.00,ENE,64,4.0,11.0,98,0.00,,,0.84,1.000000,,2013-07-08 04:33:00,
2013-07-08 00:42:00,60.0,59.0,-100.00,ENE,64,4.0,11.0,98,0.00,,,0.84,1.000000,,2013-07-08 04:42:00,
2013-07-08 00:53:00,60.0,59.0,-100.00,ENE,64,4.0,11.0,98,0.00,,,0.84,1.000000,,2013-07-08 04:53:00,
2013-07-08 01:33:00,59.0,58.0,-100.00,ENE,62,5.0,12.0,98,0.00,,,0.84,1.000000,,2013-07-08 05:33:00,
2013-07-08 01:43:00,59.0,58.0,-100.00,ENE,62,5.0,12.0,98,0.00,,,0.84,1.000000,,2013-07-08 05:43:00,
2013-07-08 01:53:00,59.0,58.0,-100.00,ENE,62,5.0,12.0,98,0.00,,,0.84,1.000000,,2013-07-08 05:53:00,
2013-07-08 02:33:00,59.0,59.0,-100.00,ENE,61,4.0,8.0,99,0.00,,,0.84,1.000000,,2013-07-08 06:33:00,
2013-07-08 02:43:00,59.0,59.0,-100.00,ENE,61,4.0,8.0,99,0.00,,,0.84,1.000000,,2013-07-08 06:43:00,
2013-07-08 02:53:00,59.0,59.0,-100.00,ENE,61,4.0,8.0,99,0.00,,,0.84,1.000000,,2013-07-08 06:53:00,
2013-07-08 03:22:00,59.0,59.0,-100.00,NE,41,2.0,7.0,99,0.00,,,0.84,1.000000,,2013-07-08 07:22:00,
2013-07-08 03:34:00,59.0,59.0,-100.00,NE,41,2.0,7.0,99,0.00,,,0.84,1.000000,,2013-07-08 07:34:00,
2013-07-08 03:44:00,59.0,59.0,-100.00,NE,41,2.0,7.0,99,0.00,,,0.84,1.000000,,2013-07-08 07:44:00,
2013-07-08 03:53:00,59.0,59.0,-100.00,NE,41,2.0,7.0,99,0.00,,,0.84,1.000000,,2013-07-08 07:53:00,
2013-07-08 04:22:00,58.0,58.0,-100.00,NNE,15,3.0,5.0,99,0.09,,,0.92,1.000000,,2013-07-08 08:22:00,
2013-07-08 04:33:00,58.0,58.0,-100.00,NNE,15,3.0,5.0,99,0.09,,,0.92,1.000000,,2013-07-08 08:33:00,
2013-07-08 04:42:00,58.0,58.0,-100.00,NNE,15,3.0,5.0,99,0.09,,,0.92,1.000000,,2013-07-08 08:42:00,
2013-07-08 04:53:00,58.0,58.0,-100.00,NNE,15,3.0,5.0,99,0.09,,,0.92,1.000000,,2013-07-08 08:53:00,
2013-07-08 05:22:00,57.0,57.0,-100.00,ESE,120,4.0,8.0,99,0.10,,,0.84,1.000000,,2013-07-08 09:22:00,
2013-07-08 05:34:00,57.0,57.0,-100.00,ESE,120,4.0,8.0,99,0.10,,,0.84,1.000000,,2013-07-08 09:34:00,
2013-07-08 05:43:00,57.0,57.0,-100.00,ESE,120,4.0,8.0,99,0.10,,,0.84,1.000000,,2013-07-08 09:43:00,
2013-07-08 05:52:00,57.0,57.0,-100.00,ESE,120,4.0,8.0,99,0.10,,,0.84,1.000000,,2013-07-08 09:52:00,
2013-07-08 06:34:00,56.0,56.0,-100.00,NNE,23,5.0,9.0,99,0.01,,,0.74,1.000000,,2013-07-08 10:34:00,
2013-07-08 06:43:00,56.0,56.0,-100.00,NNE,23,5.0,9.0,99,0.01,,,0.74,1.000000,,2013-07-08 10:43:00,
2013-07-08 06:53:00,56.0,56.0,-100.00,NNE,23,5.0,9.0,99,0.01,,,0.74,1.000000,,2013-07-08 10:53:00,
2013-07-08 07:23:00,56.0,56.0,-100.00,NE,37,3.0,9.0,99,0.00,,,0.51,6.000000,,2013-07-08 11:23:00,
2013-07-08 07:33:00,56.0,56.0,-100.00,NE,37,3.0,9.0,99,0.00,,,0.51,6.000000,,2013-07-08 11:33:00,
2013-07-08 07:43:00,56.0,56.0,-100.00,NE,37,3.0,9.0,99,0.00,,,0.51,6.000000,,2013-07-08 11:43:00,
2013-07-08 07:53:00,56.0,56.0,-100.00,NE,37,3.0,9.0,99,0.00,,,0.51,6.000000,,2013-07-08 11:53:00,
2013-07-08 08:34:00,57.0,57.0,-100.00,NNE,29,2.0,6.0,99,0.00,,,0.30,46.000000,,2013-07-08 12:34:00,
2013-07-08 08:43:00,57.0,57.0,-100.00,NNE,29,2.0,6.0,99,0.00,,,0.30,46.000000,,2013-07-08 12:43:00,
2013-07-08 08:53:00,57.0,57.0,-100.00,NNE,29,2.0,6.0,99,0.00,,,0.30,46.000000,,2013-07-08 12:53:00,
2013-07-08 09:33:00,59.0,59.0,-100.00,NE,41,3.0,9.0,99,0.00,,,0.20,127.000000,,2013-07-08 13:33:00,
2013-07-08 09:42:00,59.0,59.0,-100.00,NE,41,3.0,9.0,99,0.00,,,0.20,127.000000,,2013-07-08 13:42:00,
2013-07-08 09:53:00,59.0,59.0,-100.00,NE,41,3.0,9.0,99,0.00,,,0.20,127.000000,,2013-07-08 13:53:00,
2013-07-08 11:33:00,68.0,65.0,-100.00,North,353,2.0,5.0,89,-99.99,,,-99.99,322.000000,,2013-07-08 15:33:00,
2013-07-08 11:43:00,68.0,65.0,-100.00,North,353,2.0,5.0,89,-99.99,,,-99.99,322.000000,,2013-07-08 15:43:00,
2013-07-08 11:53:00,68.0,65.0,-100.00,North,353,2.0,5.0,89,-99.99,,,-99.99,322.000000,,2013-07-08 15:53:00,
2013-07-08 12:22:00,70.0,65.0,-100.00,NE,42,4.0,7.0,83,0.00,,,0.20,468.000000,,2013-07-08 16:22:00,
2013-07-08 12:33:00,70.0,65.0,-100.00,NE,42,4.0,7.0,83,0.00,,,0.20,468.000000,,2013-07-08 16:33:00,
2013-07-08 12:43:00,70.0,65.0,-100.00,NE,42,4.0,7.0,83,0.00,,,0.20,468.000000,,2013-07-08 16:43:00,
2013-07-08 12:54:00,70.0,65.0,-100.00,NE,42,4.0,7.0,83,0.00,,,0.20,468.000000,,2013-07-08 16:54:00,
2013-07-08 13:37:00,70.0,65.0,-100.00,NNE,16,5.0,9.0,84,0.00,,,0.20,435.000000,,2013-07-08 17:37:00,
2013-07-08 13:46:00,70.0,65.0,-100.00,NNE,16,5.0,9.0,84,0.00,,,0.20,435.000000,,2013-07-08 17:46:00,
2013-07-08 13:54:00,70.0,65.0,-100.00,NNE,16,5.0,9.0,84,0.00,,,0.20,435.000000,,2013-07-08 17:54:00,
2013-07-08 13:56:00,69.0,64.0,-100.00,NNW,332,4.0,9.0,84,0.00,,,0.20,396.000000,,2013-07-08 17:56:00,
2013-07-08 14:43:00,69.0,64.0,-100.00,NNW,332,4.0,9.0,84,0.00,,,0.20,396.000000,,2013-07-08 18:43:00,
2013-07-08 15:38:00,68.0,64.0,-100.00,NW,312,5.0,9.0,86,0.00,,,0.20,373.000000,,2013-07-08 19:38:00,
2013-07-08 15:51:00,68.0,64.0,-100.00,NW,312,5.0,9.0,86,0.00,,,0.20,373.000000,,2013-07-08 19:51:00,
2013-07-08 15:56:00,72.0,65.0,-100.00,North,6,4.0,9.0,80,0.00,,,0.20,499.000000,,2013-07-08 19:56:00,
2013-07-08 16:43:00,72.0,65.0,-100.00,North,6,4.0,9.0,80,0.00,,,0.20,499.000000,,2013-07-08 20:43:00,
2013-07-08 16:50:00,72.0,65.0,-100.00,North,6,4.0,9.0,80,0.00,,,0.20,499.000000,,2013-07-08 20:50:00,
2013-07-08 17:51:00,76.0,66.0,-100.00,NNE,30,3.0,7.0,71,0.00,,,0.20,701.000000,,2013-07-08 21:51:00,
2013-07-08 18:53:00,79.0,67.0,-100.00,ENE,76,3.0,7.0,67,0.00,,,0.20,790.000000,,2013-07-08 22:53:00,
2013-07-08 18:56:00,76.0,66.0,-100.00,North,8,2.0,7.0,72,0.00,,,0.20,422.000000,,2013-07-08 22:56:00,
2013-07-08 19:44:00,76.0,66.0,-100.00,North,8,2.0,7.0,72,0.00,,,0.20,422.000000,,2013-07-08 23:44:00,
2013-07-08 20:42:00,76.0,66.0,-100.00,NE,49,3.0,7.0,71,0.00,,,0.20,374.000000,,2013-07-09 00:42:00,
2013-07-08 20:52:00,76.0,66.0,-100.00,NE,49,3.0,7.0,71,0.00,,,0.20,374.000000,,2013-07-09 00:52:00,
2013-07-08 21:42:00,72.0,64.0,-100.00,NNE,32,2.0,6.0,76,-99.99,,,0.20,179.000000,,2013-07-09 01:42:00,
2013-07-08 21:53:00,72.0,64.0,-100.00,NNE,32,2.0,6.0,76,-99.99,,,0.20,179.000000,,2013-07-09 01:53:00,
2013-07-08 21:56:00,64.0,63.0,-100.00,NNE,19,0.0,3.0,95,0.00,,,0.20,16.000000,,2013-07-09 01:56:00,
2013-07-08 22:54:00,64.0,63.0,-100.00,NNE,19,0.0,3.0,95,0.00,,,0.20,16.000000,,2013-07-09 02:54:00,
2013-07-08 22:56:00,60.0,60.0,-100.00,NE,35,0.0,1.0,99,0.00,,,0.20,1.000000,,2013-07-09 02:56:00,
2013-07-08 23:52:00,60.0,60.0,-100.00,NE,35,0.0,1.0,99,0.00,,,0.20,1.000000,,2013-07-09 03:52:00,